owner,sensor,date,latitude,longitude,vertical_datum,sea_water_practical_salinity,qcFlag 
DISL,ioos:station:DISL:BSCA:1,2016-04-01T00:00:00Z,30.3288,-87.8293,2.231,3.63,1111122 
DISL,ioos:station:DISL:BSCA:1,2016-04-01T00:30:00Z,30.3288,-87.8293,2.213,3.7,1111122 
DISL,ioos:station:DISL:BSCA:1,2016-04-01T01:00:00Z,30.3288,-87.8293,2.201,3.68,1111122 
DISL,ioos:station:DISL:BSCA:1,2016-04-01T01:30:00Z,30.3288,-87.8293,2.182,3.63,1111122 
DISL,ioos:station:DISL:BSCA:1,2016-04-01T02:00:00Z,30.3288,-87.8293,2.165,3.65,1111122 
DISL,ioos:station:DISL:BSCA:1,2016-04-01T02:30:00Z,30.3288,-87.8293,2.142,3.65,1111122 
DISL,ioos:station:DISL:BSCA:1,2016-04-01T03:00:00Z,30.3288,-87.8293,2.131,3.64,1111122 
DISL,ioos:station:DISL:BSCA:1,2016-04-01T03:30:00Z,30.3288,-87.8293,2.123,3.47,1111122 
DISL,ioos:station:DISL:BSCA:1,2016-04-01T04:00:00Z,30.3288,-87.8293,2.096,3.53,1111122 
DISL,ioos:station:DISL:BSCA:1,2016-04-01T04:30:00Z,30.3288,-87.8293,2.082,3.48,1111122 
DISL,ioos:station:DISL:BSCA:1,2016-04-01T05:00:00Z,30.3288,-87.8293,2.059,3.44,1111122 
DISL,ioos:station:DISL:BSCA:1,2016-04-01T05:30:00Z,30.3288,-87.8293,2.034,3.42,1111122 
DISL,ioos:station:DISL:BSCA:1,2016-04-01T06:00:00Z,30.3288,-87.8293,2.012,3.49,1111122 
DISL,ioos:station:DISL:BSCA:1,2016-04-01T06:30:00Z,30.3288,-87.8293,1.999,3.43,1111122 
DISL,ioos:station:DISL:BSCA:1,2016-04-01T07:00:00Z,30.3288,-87.8293,1.974,3.41,1111122 
DISL,ioos:station:DISL:BSCA:1,2016-04-01T07:30:00Z,30.3288,-87.8293,1.951,3.55,1111122 
DISL,ioos:station:DISL:BSCA:1,2016-04-01T08:00:00Z,30.3288,-87.8293,1.943,3.55,1111122 
DISL,ioos:station:DISL:BSCA:1,2016-04-01T08:30:00Z,30.3288,-87.8293,1.932,3.54,1111122 
DISL,ioos:station:DISL:BSCA:1,2016-04-01T09:00:00Z,30.3288,-87.8293,1.925,3.54,1111122 
DISL,ioos:station:DISL:BSCA:1,2016-04-01T09:30:00Z,30.3288,-87.8293,1.925,3.54,1111122 
DISL,ioos:station:DISL:BSCA:1,2016-04-01T10:00:00Z,30.3288,-87.8293,1.935,3.53,1111122 
DISL,ioos:station:DISL:BSCA:1,2016-04-01T10:30:00Z,30.3288,-87.8293,1.943,3.53,1111122 
DISL,ioos:station:DISL:BSCA:1,2016-04-01T11:00:00Z,30.3288,-87.8293,1.953,3.53,1111122 
DISL,ioos:station:DISL:BSCA:1,2016-04-01T11:30:00Z,30.3288,-87.8293,1.959,3.53,1111122 
DISL,ioos:station:DISL:BSCA:1,2016-04-01T12:00:00Z,30.3288,-87.8293,1.99,3.52,1111122 
DISL,ioos:station:DISL:BSCA:1,2016-04-01T12:30:00Z,30.3288,-87.8293,2.012,3.5,1111122 
DISL,ioos:station:DISL:BSCA:1,2016-04-01T13:00:00Z,30.3288,-87.8293,2.054,3.49,1111122 
DISL,ioos:station:DISL:BSCA:1,2016-04-01T13:30:00Z,30.3288,-87.8293,2.062,3.48,1111122 
DISL,ioos:station:DISL:BSCA:1,2016-04-01T14:00:00Z,30.3288,-87.8293,2.094,3.48,1111122 
DISL,ioos:station:DISL:BSCA:1,2016-04-01T14:30:00Z,30.3288,-87.8293,2.151,3.48,1111122 
DISL,ioos:station:DISL:BSCA:1,2016-04-01T15:00:00Z,30.3288,-87.8293,2.169,3.47,1111122 
DISL,ioos:station:DISL:BSCA:1,2016-04-01T15:30:00Z,30.3288,-87.8293,2.221,3.47,1111122 
DISL,ioos:station:DISL:BSCA:1,2016-04-01T16:00:00Z,30.3288,-87.8293,2.267,3.46,1111122 
DISL,ioos:station:DISL:BSCA:1,2016-04-01T16:30:00Z,30.3288,-87.8293,2.312,3.46,1111122 
DISL,ioos:station:DISL:BSCA:1,2016-04-01T17:00:00Z,30.3288,-87.8293,2.346,3.46,1111122 
DISL,ioos:station:DISL:BSCA:1,2016-04-01T17:30:00Z,30.3288,-87.8293,2.328,3.39,1111122 
DISL,ioos:station:DISL:BSCA:1,2016-04-01T18:00:00Z,30.3288,-87.8293,2.259,3.38,1111122 
DISL,ioos:station:DISL:BSCA:1,2016-04-01T18:30:00Z,30.3288,-87.8293,2.244,3.47,1111122 
DISL,ioos:station:DISL:BSCA:1,2016-04-01T19:00:00Z,30.3288,-87.8293,2.174,3.4,1111122 
DISL,ioos:station:DISL:BSCA:1,2016-04-01T19:30:00Z,30.3288,-87.8293,2.183,3.41,1111122 
DISL,ioos:station:DISL:BSCA:1,2016-04-01T20:00:00Z,30.3288,-87.8293,2.205,3.4,1111122 
DISL,ioos:station:DISL:BSCA:1,2016-04-01T20:30:00Z,30.3288,-87.8293,2.202,3.35,1111122 
DISL,ioos:station:DISL:BSCA:1,2016-04-01T21:00:00Z,30.3288,-87.8293,2.219,3.29,1111122 
DISL,ioos:station:DISL:BSCA:1,2016-04-01T21:30:00Z,30.3288,-87.8293,2.221,3.4,1111122 
DISL,ioos:station:DISL:BSCA:1,2016-04-01T22:00:00Z,30.3288,-87.8293,2.212,3.44,1111122 
DISL,ioos:station:DISL:BSCA:1,2016-04-01T22:30:00Z,30.3288,-87.8293,2.181,3.3,1111122 
DISL,ioos:station:DISL:BSCA:1,2016-04-01T23:00:00Z,30.3288,-87.8293,2.182,3.37,1111122 
DISL,ioos:station:DISL:BSCA:1,2016-04-01T23:30:00Z,30.3288,-87.8293,2.16,3.45,1111122 
DISL,ioos:station:DISL:BSCA:1,2016-04-02T00:00:00Z,30.3288,-87.8293,2.2,3.51,1111122 
DISL,ioos:station:DISL:BSCA:1,2016-04-02T00:30:00Z,30.3288,-87.8293,2.327,3.44,1111122 
DISL,ioos:station:DISL:BSCA:1,2016-04-02T01:00:00Z,30.3288,-87.8293,2.431,3.51,1111122 
DISL,ioos:station:DISL:BSCA:1,2016-04-02T01:30:00Z,30.3288,-87.8293,2.297,3.49,1111122 
DISL,ioos:station:DISL:BSCA:1,2016-04-02T02:00:00Z,30.3288,-87.8293,2.185,3.38,1111122 
DISL,ioos:station:DISL:BSCA:1,2016-04-02T02:30:00Z,30.3288,-87.8293,2.095,3.28,1111122 
DISL,ioos:station:DISL:BSCA:1,2016-04-02T03:00:00Z,30.3288,-87.8293,2.001,3.46,1111122 
DISL,ioos:station:DISL:BSCA:1,2016-04-02T03:30:00Z,30.3288,-87.8293,1.94,3.41,1111122 
DISL,ioos:station:DISL:BSCA:1,2016-04-02T04:00:00Z,30.3288,-87.8293,1.957,3.48,1111122 
DISL,ioos:station:DISL:BSCA:1,2016-04-02T04:30:00Z,30.3288,-87.8293,1.929,3.44,1111122 
DISL,ioos:station:DISL:BSCA:1,2016-04-02T05:00:00Z,30.3288,-87.8293,1.947,4.27,1111122 
DISL,ioos:station:DISL:BSCA:1,2016-04-02T05:30:00Z,30.3288,-87.8293,1.966,5.12,1111122 
DISL,ioos:station:DISL:BSCA:1,2016-04-02T06:00:00Z,30.3288,-87.8293,1.94,6.28,1111122 
DISL,ioos:station:DISL:BSCA:1,2016-04-02T06:30:00Z,30.3288,-87.8293,1.922,3.8,1111122 
DISL,ioos:station:DISL:BSCA:1,2016-04-02T07:00:00Z,30.3288,-87.8293,1.876,3.95,1111122 
DISL,ioos:station:DISL:BSCA:1,2016-04-02T07:30:00Z,30.3288,-87.8293,1.773,3.96,1111122 
DISL,ioos:station:DISL:BSCA:1,2016-04-02T08:00:00Z,30.3288,-87.8293,1.802,4.06,1111122 
DISL,ioos:station:DISL:BSCA:1,2016-04-02T08:30:00Z,30.3288,-87.8293,1.763,4.06,1111122 
DISL,ioos:station:DISL:BSCA:1,2016-04-02T09:00:00Z,30.3288,-87.8293,1.775,4.33,1111122 
DISL,ioos:station:DISL:BSCA:1,2016-04-02T09:30:00Z,30.3288,-87.8293,1.88,6.94,1111122 
DISL,ioos:station:DISL:BSCA:1,2016-04-02T10:00:00Z,30.3288,-87.8293,1.863,6.79,1111122 
DISL,ioos:station:DISL:BSCA:1,2016-04-02T10:30:00Z,30.3288,-87.8293,1.854,4.39,1111122 
DISL,ioos:station:DISL:BSCA:1,2016-04-02T11:00:00Z,30.3288,-87.8293,1.851,4.33,1111122 
DISL,ioos:station:DISL:BSCA:1,2016-04-02T11:30:00Z,30.3288,-87.8293,1.842,4.59,1111122 
DISL,ioos:station:DISL:BSCA:1,2016-04-02T12:00:00Z,30.3288,-87.8293,1.753,4.85,1111122 
DISL,ioos:station:DISL:BSCA:1,2016-04-02T12:30:00Z,30.3288,-87.8293,1.729,4.9,1111122 
DISL,ioos:station:DISL:BSCA:1,2016-04-02T13:00:00Z,30.3288,-87.8293,1.761,5.04,1111122 
DISL,ioos:station:DISL:BSCA:1,2016-04-02T13:30:00Z,30.3288,-87.8293,1.767,5.14,1111122 
DISL,ioos:station:DISL:BSCA:1,2016-04-02T14:00:00Z,30.3288,-87.8293,1.807,5.28,1111122 
DISL,ioos:station:DISL:BSCA:1,2016-04-02T14:30:00Z,30.3288,-87.8293,1.781,5.5,1111122 
DISL,ioos:station:DISL:BSCA:1,2016-04-02T15:00:00Z,30.3288,-87.8293,1.829,5.45,1111122 
DISL,ioos:station:DISL:BSCA:1,2016-04-02T15:30:00Z,30.3288,-87.8293,1.815,5.39,1111122 
DISL,ioos:station:DISL:BSCA:1,2016-04-02T16:00:00Z,30.3288,-87.8293,1.874,5.52,1111122 
DISL,ioos:station:DISL:BSCA:1,2016-04-02T16:30:00Z,30.3288,-87.8293,1.861,5.59,1111122 
DISL,ioos:station:DISL:BSCA:1,2016-04-02T17:00:00Z,30.3288,-87.8293,1.899,5.61,1111122 
DISL,ioos:station:DISL:BSCA:1,2016-04-02T17:30:00Z,30.3288,-87.8293,1.932,5.48,1111122 
DISL,ioos:station:DISL:BSCA:1,2016-04-02T18:00:00Z,30.3288,-87.8293,1.922,5.67,1111122 
DISL,ioos:station:DISL:BSCA:1,2016-04-02T18:30:00Z,30.3288,-87.8293,2.037,5.63,1111122 
DISL,ioos:station:DISL:BSCA:1,2016-04-02T19:00:00Z,30.3288,-87.8293,2.001,5.67,1111122 
DISL,ioos:station:DISL:BSCA:1,2016-04-02T19:30:00Z,30.3288,-87.8293,2.049,5.68,1111122 
DISL,ioos:station:DISL:BSCA:1,2016-04-02T20:00:00Z,30.3288,-87.8293,2.127,5.69,1111122 
DISL,ioos:station:DISL:BSCA:1,2016-04-02T20:30:00Z,30.3288,-87.8293,2.069,5.79,1111122 
DISL,ioos:station:DISL:BSCA:1,2016-04-02T21:00:00Z,30.3288,-87.8293,2.089,5.61,1111122 
DISL,ioos:station:DISL:BSCA:1,2016-04-02T21:30:00Z,30.3288,-87.8293,2.114,5.51,1111122 
DISL,ioos:station:DISL:BSCA:1,2016-04-02T22:00:00Z,30.3288,-87.8293,2.132,5.47,1111122 
DISL,ioos:station:DISL:BSCA:1,2016-04-02T22:30:00Z,30.3288,-87.8293,2.154,5.73,1111122 
DISL,ioos:station:DISL:BSCA:1,2016-04-02T23:00:00Z,30.3288,-87.8293,2.153,7.09,1111122 
DISL,ioos:station:DISL:BSCA:1,2016-04-02T23:30:00Z,30.3288,-87.8293,2.171,7.88,1111122 
DISL,ioos:station:DISL:BSCA:1,2016-04-03T00:00:00Z,30.3288,-87.8293,2.166,6.56,1111122 
DISL,ioos:station:DISL:BSCA:1,2016-04-03T00:30:00Z,30.3288,-87.8293,2.165,6.52,1111122 
DISL,ioos:station:DISL:BSCA:1,2016-04-03T01:00:00Z,30.3288,-87.8293,2.154,6.71,1111122 
DISL,ioos:station:DISL:BSCA:1,2016-04-03T01:30:00Z,30.3288,-87.8293,2.132,6.69,1111122 
DISL,ioos:station:DISL:BSCA:1,2016-04-03T02:00:00Z,30.3288,-87.8293,2.092,6.53,1111122 
DISL,ioos:station:DISL:BSCA:1,2016-04-03T02:30:00Z,30.3288,-87.8293,2.052,6.03,1111122 
DISL,ioos:station:DISL:BSCA:1,2016-04-03T03:00:00Z,30.3288,-87.8293,2.026,6.33,1111122 
DISL,ioos:station:DISL:BSCA:1,2016-04-03T03:30:00Z,30.3288,-87.8293,2.006,7.68,1111122 
DISL,ioos:station:DISL:BSCA:1,2016-04-03T04:00:00Z,30.3288,-87.8293,1.977,5.42,1111122 
DISL,ioos:station:DISL:BSCA:1,2016-04-03T04:30:00Z,30.3288,-87.8293,1.956,5.94,1111122 
DISL,ioos:station:DISL:BSCA:1,2016-04-03T05:00:00Z,30.3288,-87.8293,1.926,7.64,1111122 
DISL,ioos:station:DISL:BSCA:1,2016-04-03T05:30:00Z,30.3288,-87.8293,1.891,7.92,1111122 
DISL,ioos:station:DISL:BSCA:1,2016-04-03T06:00:00Z,30.3288,-87.8293,1.86,8.13,1111122 
DISL,ioos:station:DISL:BSCA:1,2016-04-03T06:30:00Z,30.3288,-87.8293,1.82,7.97,1111122 
DISL,ioos:station:DISL:BSCA:1,2016-04-03T07:00:00Z,30.3288,-87.8293,1.798,5.07,1111122 
DISL,ioos:station:DISL:BSCA:1,2016-04-03T07:30:00Z,30.3288,-87.8293,1.762,5.13,1111122 
DISL,ioos:station:DISL:BSCA:1,2016-04-03T08:00:00Z,30.3288,-87.8293,1.715,5.36,1111122 
DISL,ioos:station:DISL:BSCA:1,2016-04-03T08:30:00Z,30.3288,-87.8293,1.68,5.32,1111122 
DISL,ioos:station:DISL:BSCA:1,2016-04-03T09:00:00Z,30.3288,-87.8293,1.644,5.44,1111122 
DISL,ioos:station:DISL:BSCA:1,2016-04-03T09:30:00Z,30.3288,-87.8293,1.626,5.35,1111122 
DISL,ioos:station:DISL:BSCA:1,2016-04-03T10:00:00Z,30.3288,-87.8293,1.626,5.47,1111122 
DISL,ioos:station:DISL:BSCA:1,2016-04-03T10:30:00Z,30.3288,-87.8293,1.629,5.45,1111122 
DISL,ioos:station:DISL:BSCA:1,2016-04-03T11:00:00Z,30.3288,-87.8293,1.637,5.39,1111122 
DISL,ioos:station:DISL:BSCA:1,2016-04-03T11:30:00Z,30.3288,-87.8293,1.644,5.53,1111122 
DISL,ioos:station:DISL:BSCA:1,2016-04-03T12:00:00Z,30.3288,-87.8293,1.649,5.36,1111122 
DISL,ioos:station:DISL:BSCA:1,2016-04-03T12:30:00Z,30.3288,-87.8293,1.666,5.39,1111122 
DISL,ioos:station:DISL:BSCA:1,2016-04-03T13:00:00Z,30.3288,-87.8293,1.691,5.37,1111122 
DISL,ioos:station:DISL:BSCA:1,2016-04-03T13:30:00Z,30.3288,-87.8293,1.725,5.5,1111122 
DISL,ioos:station:DISL:BSCA:1,2016-04-03T14:00:00Z,30.3288,-87.8293,1.752,5.53,1111122 
DISL,ioos:station:DISL:BSCA:1,2016-04-03T14:30:00Z,30.3288,-87.8293,1.785,6.02,1111122 
DISL,ioos:station:DISL:BSCA:1,2016-04-03T15:00:00Z,30.3288,-87.8293,1.827,6.39,1111122 
DISL,ioos:station:DISL:BSCA:1,2016-04-03T15:30:00Z,30.3288,-87.8293,1.879,6.67,1111122 
DISL,ioos:station:DISL:BSCA:1,2016-04-03T16:00:00Z,30.3288,-87.8293,1.891,6.38,1111122 
DISL,ioos:station:DISL:BSCA:1,2016-04-03T16:30:00Z,30.3288,-87.8293,1.908,6.08,1111122 
DISL,ioos:station:DISL:BSCA:1,2016-04-03T17:00:00Z,30.3288,-87.8293,1.91,5.97,1111122 
DISL,ioos:station:DISL:BSCA:1,2016-04-03T17:30:00Z,30.3288,-87.8293,1.909,6.07,1111122 
DISL,ioos:station:DISL:BSCA:1,2016-04-03T18:00:00Z,30.3288,-87.8293,1.901,6.38,1111122 
DISL,ioos:station:DISL:BSCA:1,2016-04-03T18:30:00Z,30.3288,-87.8293,1.915,6.46,1111122 
DISL,ioos:station:DISL:BSCA:1,2016-04-03T19:00:00Z,30.3288,-87.8293,1.93,6.55,1111122 
DISL,ioos:station:DISL:BSCA:1,2016-04-03T19:30:00Z,30.3288,-87.8293,1.959,6.65,1111122 
DISL,ioos:station:DISL:BSCA:1,2016-04-03T20:00:00Z,30.3288,-87.8293,1.974,6.82,1111122 
DISL,ioos:station:DISL:BSCA:1,2016-04-03T20:30:00Z,30.3288,-87.8293,1.991,6.99,1111122 
DISL,ioos:station:DISL:BSCA:1,2016-04-03T21:00:00Z,30.3288,-87.8293,2.017,7.17,1111122 
DISL,ioos:station:DISL:BSCA:1,2016-04-03T21:30:00Z,30.3288,-87.8293,2.045,7.24,1111122 
DISL,ioos:station:DISL:BSCA:1,2016-04-03T22:00:00Z,30.3288,-87.8293,2.06,7.79,1111122 
DISL,ioos:station:DISL:BSCA:1,2016-04-03T22:30:00Z,30.3288,-87.8293,2.082,7.69,1111122 
DISL,ioos:station:DISL:BSCA:1,2016-04-03T23:00:00Z,30.3288,-87.8293,2.095,7.47,1111122 
DISL,ioos:station:DISL:BSCA:1,2016-04-03T23:30:00Z,30.3288,-87.8293,2.093,7.52,1111122 
DISL,ioos:station:DISL:BSCA:1,2016-04-04T00:00:00Z,30.3288,-87.8293,2.105,7.83,1111122 
DISL,ioos:station:DISL:BSCA:1,2016-04-04T00:30:00Z,30.3288,-87.8293,2.117,7.42,1111122 
DISL,ioos:station:DISL:BSCA:1,2016-04-04T01:00:00Z,30.3288,-87.8293,2.132,6.94,1111122 
DISL,ioos:station:DISL:BSCA:1,2016-04-04T01:30:00Z,30.3288,-87.8293,2.131,6.33,1111122 
DISL,ioos:station:DISL:BSCA:1,2016-04-04T02:00:00Z,30.3288,-87.8293,2.135,6.55,1111122 
DISL,ioos:station:DISL:BSCA:1,2016-04-04T02:30:00Z,30.3288,-87.8293,2.136,6.5,1111122 
DISL,ioos:station:DISL:BSCA:1,2016-04-04T03:00:00Z,30.3288,-87.8293,2.137,6.62,1111122 
DISL,ioos:station:DISL:BSCA:1,2016-04-04T03:30:00Z,30.3288,-87.8293,2.099,6.6,1111122 
DISL,ioos:station:DISL:BSCA:1,2016-04-04T04:00:00Z,30.3288,-87.8293,2.073,6.49,1111122 
DISL,ioos:station:DISL:BSCA:1,2016-04-04T04:30:00Z,30.3288,-87.8293,2.045,6.48,1111122 
DISL,ioos:station:DISL:BSCA:1,2016-04-04T05:00:00Z,30.3288,-87.8293,2.014,6.53,1111122 
DISL,ioos:station:DISL:BSCA:1,2016-04-04T05:30:00Z,30.3288,-87.8293,1.99,6.56,1111122 
DISL,ioos:station:DISL:BSCA:1,2016-04-04T06:00:00Z,30.3288,-87.8293,1.968,6.59,1111122 
DISL,ioos:station:DISL:BSCA:1,2016-04-04T06:30:00Z,30.3288,-87.8293,1.981,6.61,1111122 
DISL,ioos:station:DISL:BSCA:1,2016-04-04T07:00:00Z,30.3288,-87.8293,1.969,6.64,1111122 
DISL,ioos:station:DISL:BSCA:1,2016-04-04T07:30:00Z,30.3288,-87.8293,1.913,6.68,1111122 
DISL,ioos:station:DISL:BSCA:1,2016-04-04T08:00:00Z,30.3288,-87.8293,1.903,6.71,1111122 
DISL,ioos:station:DISL:BSCA:1,2016-04-04T08:30:00Z,30.3288,-87.8293,1.828,6.79,1111122 
DISL,ioos:station:DISL:BSCA:1,2016-04-04T09:00:00Z,30.3288,-87.8293,1.965,6.78,1111122 
DISL,ioos:station:DISL:BSCA:1,2016-04-04T09:30:00Z,30.3288,-87.8293,1.809,6.78,1111122 
DISL,ioos:station:DISL:BSCA:1,2016-04-04T10:00:00Z,30.3288,-87.8293,1.881,6.64,1111122 
DISL,ioos:station:DISL:BSCA:1,2016-04-04T10:30:00Z,30.3288,-87.8293,1.807,6.69,1111122 
DISL,ioos:station:DISL:BSCA:1,2016-04-04T11:00:00Z,30.3288,-87.8293,1.786,6.7,1111122 
DISL,ioos:station:DISL:BSCA:1,2016-04-04T11:30:00Z,30.3288,-87.8293,1.747,6.73,1111122 
DISL,ioos:station:DISL:BSCA:1,2016-04-04T12:00:00Z,30.3288,-87.8293,1.739,6.65,1111122 
DISL,ioos:station:DISL:BSCA:1,2016-04-04T12:30:00Z,30.3288,-87.8293,1.72,6.81,1111122 
DISL,ioos:station:DISL:BSCA:1,2016-04-04T13:00:00Z,30.3288,-87.8293,1.721,6.64,1111122 
DISL,ioos:station:DISL:BSCA:1,2016-04-04T13:30:00Z,30.3288,-87.8293,1.724,6.63,1111122 
DISL,ioos:station:DISL:BSCA:1,2016-04-04T14:00:00Z,30.3288,-87.8293,1.726,6.72,1111122 
DISL,ioos:station:DISL:BSCA:1,2016-04-04T14:30:00Z,30.3288,-87.8293,1.719,6.92,1111122 
DISL,ioos:station:DISL:BSCA:1,2016-04-04T15:00:00Z,30.3288,-87.8293,1.726,6.98,1111122 
DISL,ioos:station:DISL:BSCA:1,2016-04-04T15:30:00Z,30.3288,-87.8293,1.737,6.98,1111122 
DISL,ioos:station:DISL:BSCA:1,2016-04-04T16:00:00Z,30.3288,-87.8293,1.741,7.06,1111122 
DISL,ioos:station:DISL:BSCA:1,2016-04-04T16:30:00Z,30.3288,-87.8293,1.749,6.84,1111122 
DISL,ioos:station:DISL:BSCA:1,2016-04-04T17:00:00Z,30.3288,-87.8293,1.758,6.85,1111122 
DISL,ioos:station:DISL:BSCA:1,2016-04-04T17:30:00Z,30.3288,-87.8293,1.768,6.76,1111122 
DISL,ioos:station:DISL:BSCA:1,2016-04-04T18:00:00Z,30.3288,-87.8293,1.774,6.95,1111122 
DISL,ioos:station:DISL:BSCA:1,2016-04-04T18:30:00Z,30.3288,-87.8293,1.794,7.32,1111122 
DISL,ioos:station:DISL:BSCA:1,2016-04-04T19:00:00Z,30.3288,-87.8293,1.805,7.27,1111122 
DISL,ioos:station:DISL:BSCA:1,2016-04-04T19:30:00Z,30.3288,-87.8293,1.834,7.14,1111122 
DISL,ioos:station:DISL:BSCA:1,2016-04-04T20:00:00Z,30.3288,-87.8293,1.852,7.43,1111122 
DISL,ioos:station:DISL:BSCA:1,2016-04-04T20:30:00Z,30.3288,-87.8293,1.874,7.53,1111122 
DISL,ioos:station:DISL:BSCA:1,2016-04-04T21:00:00Z,30.3288,-87.8293,1.887,7.59,1111122 
DISL,ioos:station:DISL:BSCA:1,2016-04-04T21:30:00Z,30.3288,-87.8293,1.902,7.62,1111122 
DISL,ioos:station:DISL:BSCA:1,2016-04-04T22:00:00Z,30.3288,-87.8293,1.917,7.36,1111122 
DISL,ioos:station:DISL:BSCA:1,2016-04-04T22:30:00Z,30.3288,-87.8293,1.945,7.35,1111122 
DISL,ioos:station:DISL:BSCA:1,2016-04-04T23:00:00Z,30.3288,-87.8293,1.973,7.59,1111122 
DISL,ioos:station:DISL:BSCA:1,2016-04-04T23:30:00Z,30.3288,-87.8293,2.013,7.67,1111122 
DISL,ioos:station:DISL:BSCA:1,2016-04-05T00:00:00Z,30.3288,-87.8293,2.04,7.63,1111122 
DISL,ioos:station:DISL:BSCA:1,2016-04-05T00:30:00Z,30.3288,-87.8293,2.062,7.61,1111122 
DISL,ioos:station:DISL:BSCA:1,2016-04-05T01:00:00Z,30.3288,-87.8293,2.065,7.11,1111122 
DISL,ioos:station:DISL:BSCA:1,2016-04-05T01:30:00Z,30.3288,-87.8293,2.069,6.92,1111122 
DISL,ioos:station:DISL:BSCA:1,2016-04-05T02:00:00Z,30.3288,-87.8293,2.076,7.0,1111122 
DISL,ioos:station:DISL:BSCA:1,2016-04-05T02:30:00Z,30.3288,-87.8293,2.08,7.01,1111122 
DISL,ioos:station:DISL:BSCA:1,2016-04-05T03:00:00Z,30.3288,-87.8293,2.083,6.95,1111122 
DISL,ioos:station:DISL:BSCA:1,2016-04-05T03:30:00Z,30.3288,-87.8293,2.088,6.89,1111122 
DISL,ioos:station:DISL:BSCA:1,2016-04-05T04:00:00Z,30.3288,-87.8293,2.079,6.88,1111122 
DISL,ioos:station:DISL:BSCA:1,2016-04-05T04:30:00Z,30.3288,-87.8293,2.066,6.86,1111122 
DISL,ioos:station:DISL:BSCA:1,2016-04-05T05:00:00Z,30.3288,-87.8293,2.059,6.79,1111122 
DISL,ioos:station:DISL:BSCA:1,2016-04-05T05:30:00Z,30.3288,-87.8293,2.04,6.71,1111122 
DISL,ioos:station:DISL:BSCA:1,2016-04-05T06:00:00Z,30.3288,-87.8293,1.996,6.68,1111122 
DISL,ioos:station:DISL:BSCA:1,2016-04-05T06:30:00Z,30.3288,-87.8293,1.997,6.92,1111122 
DISL,ioos:station:DISL:BSCA:1,2016-04-05T07:00:00Z,30.3288,-87.8293,1.94,6.7,1111122 
DISL,ioos:station:DISL:BSCA:1,2016-04-05T07:30:00Z,30.3288,-87.8293,1.954,7.12,1111122 
DISL,ioos:station:DISL:BSCA:1,2016-04-05T08:00:00Z,30.3288,-87.8293,1.918,7.19,1111122 
DISL,ioos:station:DISL:BSCA:1,2016-04-05T08:30:00Z,30.3288,-87.8293,1.88,7.63,1111122 
DISL,ioos:station:DISL:BSCA:1,2016-04-05T09:00:00Z,30.3288,-87.8293,1.848,7.95,1111122 
DISL,ioos:station:DISL:BSCA:1,2016-04-05T09:30:00Z,30.3288,-87.8293,1.824,7.88,1111122 
DISL,ioos:station:DISL:BSCA:1,2016-04-05T10:00:00Z,30.3288,-87.8293,1.797,7.86,1111122 
DISL,ioos:station:DISL:BSCA:1,2016-04-05T10:30:00Z,30.3288,-87.8293,1.773,7.87,1111122 
DISL,ioos:station:DISL:BSCA:1,2016-04-05T11:00:00Z,30.3288,-87.8293,1.759,7.83,1111122 
DISL,ioos:station:DISL:BSCA:1,2016-04-05T11:30:00Z,30.3288,-87.8293,1.746,7.56,1111122 
DISL,ioos:station:DISL:BSCA:1,2016-04-05T12:00:00Z,30.3288,-87.8293,1.73,7.07,1111122 
DISL,ioos:station:DISL:BSCA:1,2016-04-05T12:30:00Z,30.3288,-87.8293,1.739,6.41,1111122 
DISL,ioos:station:DISL:BSCA:1,2016-04-05T13:00:00Z,30.3288,-87.8293,1.737,6.44,1111122 
DISL,ioos:station:DISL:BSCA:1,2016-04-05T13:30:00Z,30.3288,-87.8293,1.742,7.4,1111122 
DISL,ioos:station:DISL:BSCA:1,2016-04-05T14:00:00Z,30.3288,-87.8293,1.748,7.69,1111122 
DISL,ioos:station:DISL:BSCA:1,2016-04-05T14:30:00Z,30.3288,-87.8293,1.752,6.45,1111122 
DISL,ioos:station:DISL:BSCA:1,2016-04-05T15:00:00Z,30.3288,-87.8293,1.753,6.17,1111122 
DISL,ioos:station:DISL:BSCA:1,2016-04-05T15:30:00Z,30.3288,-87.8293,1.753,6.13,1111122 
DISL,ioos:station:DISL:BSCA:1,2016-04-05T16:00:00Z,30.3288,-87.8293,1.767,6.12,1111122 
DISL,ioos:station:DISL:BSCA:1,2016-04-05T16:30:00Z,30.3288,-87.8293,1.782,5.98,1111122 
DISL,ioos:station:DISL:BSCA:1,2016-04-05T17:00:00Z,30.3288,-87.8293,1.81,6.11,1111122 
DISL,ioos:station:DISL:BSCA:1,2016-04-05T17:30:00Z,30.3288,-87.8293,1.842,6.14,1111122 
DISL,ioos:station:DISL:BSCA:1,2016-04-05T18:00:00Z,30.3288,-87.8293,1.856,6.1,1111122 
DISL,ioos:station:DISL:BSCA:1,2016-04-05T18:30:00Z,30.3288,-87.8293,1.882,6.02,1111122 
DISL,ioos:station:DISL:BSCA:1,2016-04-05T19:00:00Z,30.3288,-87.8293,1.888,6.15,1111122 
DISL,ioos:station:DISL:BSCA:1,2016-04-05T19:30:00Z,30.3288,-87.8293,1.891,6.94,1111122 
DISL,ioos:station:DISL:BSCA:1,2016-04-05T20:00:00Z,30.3288,-87.8293,1.884,7.17,1111122 
DISL,ioos:station:DISL:BSCA:1,2016-04-05T20:30:00Z,30.3288,-87.8293,1.875,6.87,1111122 
DISL,ioos:station:DISL:BSCA:1,2016-04-05T21:00:00Z,30.3288,-87.8293,1.861,6.62,1111122 
DISL,ioos:station:DISL:BSCA:1,2016-04-05T21:30:00Z,30.3288,-87.8293,1.862,6.37,1111122 
DISL,ioos:station:DISL:BSCA:1,2016-04-05T22:00:00Z,30.3288,-87.8293,1.864,6.19,1111122 
DISL,ioos:station:DISL:BSCA:1,2016-04-05T22:30:00Z,30.3288,-87.8293,1.881,6.04,1111122 
DISL,ioos:station:DISL:BSCA:1,2016-04-05T23:00:00Z,30.3288,-87.8293,1.908,5.91,1111122 
DISL,ioos:station:DISL:BSCA:1,2016-04-05T23:30:00Z,30.3288,-87.8293,1.932,5.93,1111122 
DISL,ioos:station:DISL:BSCA:1,2016-04-06T00:00:00Z,30.3288,-87.8293,1.954,5.86,1111122 
DISL,ioos:station:DISL:BSCA:1,2016-04-06T00:30:00Z,30.3288,-87.8293,1.979,6.28,1111122 
DISL,ioos:station:DISL:BSCA:1,2016-04-06T01:00:00Z,30.3288,-87.8293,1.996,6.28,1111122 
DISL,ioos:station:DISL:BSCA:1,2016-04-06T01:30:00Z,30.3288,-87.8293,2.012,6.31,1111122 
DISL,ioos:station:DISL:BSCA:1,2016-04-06T02:00:00Z,30.3288,-87.8293,2.013,6.27,1111122 
DISL,ioos:station:DISL:BSCA:1,2016-04-06T02:30:00Z,30.3288,-87.8293,2.013,6.24,1111122 
DISL,ioos:station:DISL:BSCA:1,2016-04-06T03:00:00Z,30.3288,-87.8293,2.023,6.18,1111122 
DISL,ioos:station:DISL:BSCA:1,2016-04-06T03:30:00Z,30.3288,-87.8293,2.032,5.89,1111122 
DISL,ioos:station:DISL:BSCA:1,2016-04-06T04:00:00Z,30.3288,-87.8293,2.053,5.9,1111122 
DISL,ioos:station:DISL:BSCA:1,2016-04-06T04:30:00Z,30.3288,-87.8293,2.06,6.2,1111122 
DISL,ioos:station:DISL:BSCA:1,2016-04-06T05:00:00Z,30.3288,-87.8293,2.055,6.64,1111122 
DISL,ioos:station:DISL:BSCA:1,2016-04-06T05:30:00Z,30.3288,-87.8293,2.044,6.6,1111122 
DISL,ioos:station:DISL:BSCA:1,2016-04-06T06:00:00Z,30.3288,-87.8293,2.025,6.64,1111122 
DISL,ioos:station:DISL:BSCA:1,2016-04-06T06:30:00Z,30.3288,-87.8293,1.996,6.67,1111122 
DISL,ioos:station:DISL:BSCA:1,2016-04-06T07:00:00Z,30.3288,-87.8293,1.972,6.67,1111122 
DISL,ioos:station:DISL:BSCA:1,2016-04-06T07:30:00Z,30.3288,-87.8293,1.938,6.68,1111122 
DISL,ioos:station:DISL:BSCA:1,2016-04-06T08:00:00Z,30.3288,-87.8293,1.904,6.67,1111122 
DISL,ioos:station:DISL:BSCA:1,2016-04-06T08:30:00Z,30.3288,-87.8293,1.877,6.66,1111122 
DISL,ioos:station:DISL:BSCA:1,2016-04-06T09:00:00Z,30.3288,-87.8293,1.849,6.65,1111122 
DISL,ioos:station:DISL:BSCA:1,2016-04-06T09:30:00Z,30.3288,-87.8293,1.83,6.64,1111122 
DISL,ioos:station:DISL:BSCA:1,2016-04-06T10:00:00Z,30.3288,-87.8293,1.825,6.66,1111122 
DISL,ioos:station:DISL:BSCA:1,2016-04-06T10:30:00Z,30.3288,-87.8293,1.81,6.62,1111122 
DISL,ioos:station:DISL:BSCA:1,2016-04-06T11:00:00Z,30.3288,-87.8293,1.796,6.49,1111122 
DISL,ioos:station:DISL:BSCA:1,2016-04-06T11:30:00Z,30.3288,-87.8293,1.795,6.25,1111122 
DISL,ioos:station:DISL:BSCA:1,2016-04-06T12:00:00Z,30.3288,-87.8293,1.793,6.1,1111122 
DISL,ioos:station:DISL:BSCA:1,2016-04-06T12:30:00Z,30.3288,-87.8293,1.801,6.08,1111122 
DISL,ioos:station:DISL:BSCA:1,2016-04-06T13:00:00Z,30.3288,-87.8293,1.808,6.0,1111122 
DISL,ioos:station:DISL:BSCA:1,2016-04-06T13:30:00Z,30.3288,-87.8293,1.819,6.03,1111122 
DISL,ioos:station:DISL:BSCA:1,2016-04-06T14:00:00Z,30.3288,-87.8293,1.829,6.05,1111122 
DISL,ioos:station:DISL:BSCA:1,2016-04-06T14:30:00Z,30.3288,-87.8293,1.833,6.09,1111122 
DISL,ioos:station:DISL:BSCA:1,2016-04-06T15:00:00Z,30.3288,-87.8293,1.862,6.12,1111122 
DISL,ioos:station:DISL:BSCA:1,2016-04-06T15:30:00Z,30.3288,-87.8293,1.891,6.13,1111122 